BOX216 EDDF-EDDC

Flight info

Callsign BOX216
Flight time 0h 46m
Altitude 25000
Route SULUS7S/18 SULUS L984 KULOK Z715 ABKIS Q240 DRN
Aircraft B77L/H-SDE1E2E3FGHIJ2J3J4J5M1RWXY/LB1D1

Departure

Time 2026-05-07 11:18
Airport Frankfurt Main Airport (EDDF)

Arrival

Time 2026-05-07 12:04
Airport Dresden Airport (EDDC)
Time Latitude Longitude Altitude Speed Heading
2026-05-07 10:35 50.03741 8.53232 357 ft 0 kts 339°
2026-05-07 11:09 50.03720 8.53245 357 ft 4 kts 339°
2026-05-07 11:09 50.03698 8.53257 357 ft 4 kts 332°
2026-05-07 11:10 50.03680 8.53283 356 ft 4 kts 290°
2026-05-07 11:10 50.03676 8.53323 356 ft 4 kts 266°
2026-05-07 11:10 50.03678 8.53350 356 ft 4 kts 258°
2026-05-07 11:10 50.03685 8.53389 357 ft 1 kts 249°
2026-05-07 11:13 50.03685 8.53388 357 ft 1 kts 249°
2026-05-07 11:13 50.03657 8.53275 356 ft 14 kts 249°
2026-05-07 11:14 50.03622 8.53127 351 ft 15 kts 249°
2026-05-07 11:14 50.03595 8.53071 355 ft 1 kts 215°
2026-05-07 11:14 50.03591 8.53068 353 ft 0 kts 208°
2026-05-07 11:16 50.03518 8.53028 354 ft 19 kts 224°
2026-05-07 11:17 50.03460 8.52838 339 ft 20 kts 249°
2026-05-07 11:17 50.03411 8.52648 336 ft 18 kts 238°
2026-05-07 11:17 50.03296 8.52596 338 ft 22 kts 181°
2026-05-07 11:17 50.02969 8.52598 340 ft 86 kts 180°
2026-05-07 11:18 50.02097 8.52607 337 ft 161 kts 179°
2026-05-07 11:18 50.00791 8.52614 408 ft 207 kts 181°
2026-05-07 11:18 49.99317 8.52639 1033 ft 217 kts 181°
2026-05-07 11:18 49.97766 8.52667 1936 ft 222 kts 181°
2026-05-07 11:19 49.96183 8.52818 2579 ft 241 kts 166°
2026-05-07 11:19 49.94795 8.54340 3346 ft 254 kts 124°
2026-05-07 11:19 49.93964 8.56767 4256 ft 260 kts 115°
2026-05-07 11:19 49.93224 8.59383 5208 ft 269 kts 110°
2026-05-07 11:20 49.92537 8.62125 6277 ft 276 kts 110°
2026-05-07 11:20 49.91787 8.64903 7285 ft 283 kts 112°
2026-05-07 11:20 49.90970 8.67659 8329 ft 287 kts 115°
2026-05-07 11:20 49.90077 8.70465 9384 ft 292 kts 116°
2026-05-07 11:21 49.89134 8.73288 10363 ft 299 kts 117°
2026-05-07 11:21 49.88124 8.76221 10947 ft 322 kts 118°
2026-05-07 11:21 49.86995 8.79429 11212 ft 355 kts 118°
2026-05-07 11:21 49.85747 8.82922 11655 ft 381 kts 119°
2026-05-07 11:22 49.84436 8.86554 12645 ft 391 kts 119°
2026-05-07 11:22 49.83116 8.90196 13867 ft 396 kts 119°
2026-05-07 11:22 49.81757 8.93937 14968 ft 400 kts 119°
2026-05-07 11:22 49.80380 8.97721 16025 ft 407 kts 119°
2026-05-07 11:23 49.78983 9.01559 17045 ft 413 kts 119°
2026-05-07 11:23 49.77557 9.05466 18051 ft 420 kts 120°
2026-05-07 11:23 49.76150 9.09458 18911 ft 426 kts 115°
2026-05-07 11:23 49.75198 9.13831 19620 ft 433 kts 103°
2026-05-07 11:24 49.74559 9.18406 20488 ft 438 kts 101°
2026-05-07 11:24 49.73913 9.23033 21428 ft 441 kts 102°
2026-05-07 11:24 49.73216 9.27675 22306 ft 446 kts 103°
2026-05-07 11:24 49.72477 9.32365 23163 ft 452 kts 103°
2026-05-07 11:25 49.71723 9.37013 24109 ft 451 kts 103°
2026-05-07 11:25 49.70954 9.41701 24850 ft 452 kts 103°
2026-05-07 11:25 49.70178 9.46417 25026 ft 453 kts 103°
2026-05-07 11:25 49.69404 9.51115 25022 ft 449 kts 103°
2026-05-07 11:26 49.68638 9.55767 25013 ft 446 kts 103°
2026-05-07 11:26 49.67872 9.60409 25009 ft 446 kts 103°
2026-05-07 11:26 49.67178 9.65048 25000 ft 442 kts 97°
2026-05-07 11:26 49.67220 9.69763 25007 ft 441 kts 77°
2026-05-07 11:27 49.68064 9.74273 25034 ft 439 kts 71°
2026-05-07 11:27 49.68942 9.78759 25006 ft 444 kts 72°
2026-05-07 11:27 49.69774 9.83355 24999 ft 443 kts 73°
2026-05-07 11:27 49.70577 9.87944 24999 ft 442 kts 73°
2026-05-07 11:28 49.71377 9.92518 25002 ft 441 kts 73°
2026-05-07 11:28 49.72346 9.97007 25027 ft 439 kts 66°
2026-05-07 11:28 49.73579 10.01315 25009 ft 438 kts 64°
2026-05-07 11:28 49.74847 10.05596 24998 ft 438 kts 63°
2026-05-07 11:29 49.76116 10.09872 25009 ft 437 kts 64°
2026-05-07 11:29 49.77374 10.14136 25008 ft 435 kts 64°
2026-05-07 11:29 49.78618 10.18393 25004 ft 434 kts 64°
2026-05-07 11:29 49.79855 10.22651 25000 ft 433 kts 65°
2026-05-07 11:30 49.81067 10.26843 25004 ft 432 kts 65°
2026-05-07 11:30 49.82290 10.31087 25005 ft 432 kts 64°
2026-05-07 11:30 49.83510 10.35334 25010 ft 432 kts 65°
2026-05-07 11:30 49.84729 10.39586 25006 ft 432 kts 65°
2026-05-07 11:31 49.85948 10.43844 25005 ft 432 kts 64°
2026-05-07 11:31 49.87165 10.48103 25004 ft 433 kts 65°
2026-05-07 11:31 49.88384 10.52376 25017 ft 432 kts 64°
2026-05-07 11:31 49.89586 10.56599 24982 ft 423 kts 65°
2026-05-07 11:32 49.91902 10.64766 24440 ft 404 kts 64°
2026-05-07 11:32 49.93007 10.68665 24186 ft 396 kts 64°
2026-05-07 11:32 49.94101 10.72532 23939 ft 387 kts 65°
2026-05-07 11:33 49.95171 10.76322 23687 ft 380 kts 65°
2026-05-07 11:33 49.96222 10.80049 23406 ft 373 kts 64°
2026-05-07 11:33 49.97250 10.83701 23118 ft 366 kts 65°
2026-05-07 11:33 49.98259 10.87290 22824 ft 359 kts 65°
2026-05-07 11:34 49.99248 10.90816 22545 ft 353 kts 64°
2026-05-07 11:34 50.00220 10.94283 22260 ft 347 kts 64°
2026-05-07 11:34 50.01172 10.97685 21980 ft 341 kts 64°
2026-05-07 11:34 50.02102 11.01009 21717 ft 336 kts 65°
2026-05-07 11:35 50.03030 11.04329 21451 ft 334 kts 65°
2026-05-07 11:35 50.03954 11.07642 21171 ft 332 kts 66°
2026-05-07 11:35 50.04867 11.10923 20908 ft 329 kts 66°
2026-05-07 11:35 50.05768 11.14166 20645 ft 325 kts 66°
2026-05-07 11:36 50.06660 11.17381 20404 ft 322 kts 66°
2026-05-07 11:36 50.07546 11.20575 20162 ft 321 kts 66°
2026-05-07 11:36 50.08430 11.23762 19921 ft 321 kts 66°
2026-05-07 11:36 50.09313 11.26949 19689 ft 321 kts 66°
2026-05-07 11:37 50.10183 11.30098 19434 ft 321 kts 67°
2026-05-07 11:37 50.11064 11.33291 19172 ft 321 kts 67°
2026-05-07 11:37 50.11939 11.36476 18909 ft 318 kts 67°
2026-05-07 11:37 50.12806 11.39632 18663 ft 315 kts 67°
2026-05-07 11:38 50.13665 11.42761 18431 ft 313 kts 67°
2026-05-07 11:38 50.14515 11.45863 18215 ft 310 kts 67°
2026-05-07 11:38 50.15360 11.48951 17964 ft 309 kts 68°
2026-05-07 11:38 50.16207 11.52048 17729 ft 312 kts 68°
2026-05-07 11:39 50.17060 11.55166 17504 ft 314 kts 69°
2026-05-07 11:39 50.17904 11.58262 17255 ft 315 kts 69°
2026-05-07 11:39 50.18759 11.61407 17026 ft 315 kts 69°
2026-05-07 11:39 50.19615 11.64557 16806 ft 315 kts 68°
2026-05-07 11:40 50.20469 11.67702 16583 ft 314 kts 69°
2026-05-07 11:40 50.21318 11.70831 16351 ft 312 kts 68°
2026-05-07 11:40 50.22158 11.73933 16082 ft 308 kts 68°
2026-05-07 11:40 50.22985 11.76989 15849 ft 304 kts 69°
2026-05-07 11:41 50.23801 11.80012 15623 ft 301 kts 68°
2026-05-07 11:41 50.24599 11.82971 15385 ft 299 kts 69°
2026-05-07 11:41 50.25407 11.85972 15172 ft 300 kts 68°
2026-05-07 11:41 50.26220 11.88994 14963 ft 302 kts 68°
2026-05-07 11:42 50.27035 11.92028 14744 ft 304 kts 69°
2026-05-07 11:42 50.27853 11.95077 14528 ft 305 kts 69°
2026-05-07 11:42 50.28673 11.98136 14312 ft 305 kts 68°
2026-05-07 11:42 50.29492 12.01197 14088 ft 305 kts 69°
2026-05-07 11:43 50.30311 12.04261 13891 ft 304 kts 69°
2026-05-07 11:43 50.31123 12.07300 13637 ft 302 kts 69°
2026-05-07 11:43 50.31928 12.10318 13385 ft 299 kts 69°
2026-05-07 11:43 50.32715 12.13275 13150 ft 297 kts 69°
2026-05-07 11:44 50.33505 12.16246 12949 ft 296 kts 69°
2026-05-07 11:44 50.34303 12.19243 12707 ft 299 kts 69°
2026-05-07 11:44 50.35194 12.22206 12413 ft 302 kts 64°
2026-05-07 11:44 50.36164 12.25112 12124 ft 299 kts 63°
2026-05-07 11:45 50.37136 12.27960 11859 ft 295 kts 63°
2026-05-07 11:45 50.38095 12.30767 11706 ft 290 kts 63°
2026-05-07 11:45 50.39041 12.33551 11518 ft 289 kts 63°
2026-05-07 11:45 50.39985 12.36336 11330 ft 291 kts 63°
2026-05-07 11:46 50.40929 12.39143 11149 ft 291 kts 63°
2026-05-07 11:46 50.41861 12.41918 10991 ft 292 kts 63°
2026-05-07 11:46 50.42810 12.44748 10809 ft 294 kts 63°
2026-05-07 11:46 50.43762 12.47594 10656 ft 295 kts 63°
2026-05-07 11:47 50.44712 12.50439 10471 ft 294 kts 63°
2026-05-07 11:47 50.45658 12.53275 10486 ft 301 kts 63°
2026-05-07 11:47 50.46676 12.56337 10322 ft 322 kts 63°
2026-05-07 11:47 50.47709 12.59444 10034 ft 318 kts 63°
2026-05-07 11:48 50.48716 12.62478 9757 ft 310 kts 63°
2026-05-07 11:48 50.49700 12.65445 9494 ft 302 kts 63°
2026-05-07 11:48 50.50645 12.68292 9218 ft 295 kts 63°
2026-05-07 11:48 50.51583 12.71126 8937 ft 288 kts 63°
2026-05-07 11:49 50.52495 12.73885 8657 ft 281 kts 62°
2026-05-07 11:49 50.53386 12.76584 8386 ft 275 kts 63°
2026-05-07 11:49 50.54254 12.79214 8134 ft 267 kts 62°
2026-05-07 11:49 50.55089 12.81751 7997 ft 256 kts 63°
2026-05-07 11:50 50.55892 12.84191 7840 ft 246 kts 63°
2026-05-07 11:50 50.56669 12.86550 7683 ft 241 kts 62°
2026-05-07 11:50 50.57437 12.88885 7567 ft 239 kts 63°
2026-05-07 11:50 50.58183 12.91161 7424 ft 236 kts 63°
2026-05-07 11:51 50.58933 12.93448 7284 ft 234 kts 63°
2026-05-07 11:51 50.59676 12.95713 7156 ft 232 kts 63°
2026-05-07 11:51 50.60428 12.97985 7041 ft 235 kts 62°
2026-05-07 11:51 50.61193 13.00276 6941 ft 237 kts 62°
2026-05-07 11:52 50.61957 13.02565 6823 ft 236 kts 62°
2026-05-07 11:52 50.62750 13.04810 6692 ft 234 kts 54°
2026-05-07 11:52 50.63779 13.06769 6549 ft 230 kts 44°
2026-05-07 11:52 50.64926 13.08459 6450 ft 230 kts 40°
2026-05-07 11:53 50.66230 13.10264 6474 ft 274 kts 40°
2026-05-07 11:53 50.67742 13.12346 6463 ft 292 kts 40°
2026-05-07 11:53 50.69239 13.14420 6424 ft 278 kts 40°
2026-05-07 11:53 50.70657 13.16391 6425 ft 267 kts 40°
2026-05-07 11:54 50.72037 13.18315 6439 ft 266 kts 40°
2026-05-07 11:54 50.73446 13.20277 6424 ft 274 kts 40°
2026-05-07 11:54 50.74885 13.22287 6422 ft 277 kts 40°
2026-05-07 11:54 50.76326 13.24303 6358 ft 276 kts 40°
2026-05-07 11:55 50.77758 13.26309 6196 ft 275 kts 40°
2026-05-07 11:55 50.79165 13.28289 6062 ft 274 kts 40°
2026-05-07 11:55 50.80586 13.30291 5877 ft 272 kts 40°
2026-05-07 11:55 50.81979 13.32241 5661 ft 264 kts 41°
2026-05-07 11:56 50.83336 13.34145 5390 ft 258 kts 41°
2026-05-07 11:56 50.84657 13.36005 5128 ft 252 kts 41°
2026-05-07 11:56 50.85946 13.37849 4881 ft 246 kts 42°
2026-05-07 11:56 50.87173 13.39638 4606 ft 241 kts 42°
2026-05-07 11:57 50.88398 13.41426 4335 ft 234 kts 42°
2026-05-07 11:57 50.89589 13.43166 4071 ft 229 kts 42°
2026-05-07 11:57 50.90708 13.44801 3988 ft 214 kts 42°
2026-05-07 11:57 50.91770 13.46355 3965 ft 203 kts 44°
2026-05-07 11:58 50.92731 13.47995 3972 ft 203 kts 48°
2026-05-07 11:58 50.93723 13.49636 3982 ft 208 kts 44°
2026-05-07 11:58 50.94790 13.51204 3988 ft 210 kts 41°
2026-05-07 11:58 50.95867 13.52708 4011 ft 201 kts 40°
2026-05-07 11:59 50.96909 13.54136 4012 ft 197 kts 40°
2026-05-07 11:59 50.97942 13.55560 3970 ft 192 kts 40°
2026-05-07 11:59 50.98901 13.56866 3931 ft 175 kts 40°
2026-05-07 11:59 50.99824 13.58124 3971 ft 174 kts 40°
2026-05-07 12:00 51.00751 13.59394 3838 ft 178 kts 39°
2026-05-07 12:00 51.01665 13.60646 3600 ft 167 kts 40°
2026-05-07 12:00 51.02512 13.61805 3375 ft 155 kts 40°
2026-05-07 12:00 51.03308 13.62895 3178 ft 149 kts 41°
2026-05-07 12:01 51.04091 13.63970 3000 ft 150 kts 41°
2026-05-07 12:01 51.04872 13.65040 2800 ft 146 kts 40°
2026-05-07 12:01 51.05617 13.66064 2565 ft 137 kts 40°
2026-05-07 12:01 51.06326 13.67036 2407 ft 133 kts 40°
2026-05-07 12:02 51.07007 13.67970 2216 ft 130 kts 40°
2026-05-07 12:02 51.07668 13.68878 2048 ft 125 kts 40°
2026-05-07 12:02 51.08323 13.69777 1888 ft 124 kts 40°
2026-05-07 12:02 51.08973 13.70671 1734 ft 123 kts 40°
2026-05-07 12:03 51.09625 13.71566 1543 ft 125 kts 40°
2026-05-07 12:03 51.10285 13.72474 1348 ft 125 kts 39°
2026-05-07 12:03 51.10933 13.73370 1213 ft 122 kts 39°
2026-05-07 12:03 51.11589 13.74266 1013 ft 124 kts 40°
2026-05-07 12:04 51.12238 13.75140 843 ft 123 kts 39°
2026-05-07 12:04 51.12850 13.75973 767 ft 117 kts 40°
2026-05-07 12:04 51.13290 13.76591 747 ft 36 kts 41°
2026-05-07 12:04 51.13352 13.76743 745 ft 15 kts 98°
2026-05-07 12:05 51.13294 13.76875 746 ft 15 kts 131°
2026-05-07 12:05 51.13283 13.76896 745 ft 0 kts 129°
2026-05-07 12:06 51.13282 13.76899 745 ft 5 kts 129°
2026-05-07 12:06 51.13223 13.76962 747 ft 12 kts 169°
2026-05-07 12:06 51.13156 13.76904 747 ft 12 kts 222°
2026-05-07 12:06 51.13096 13.76817 752 ft 12 kts 222°
2026-05-07 12:07 51.13037 13.76732 753 ft 12 kts 221°
2026-05-07 12:07 51.12974 13.76644 752 ft 12 kts 221°
2026-05-07 12:07 51.12912 13.76559 753 ft 12 kts 220°
2026-05-07 12:07 51.12824 13.76447 755 ft 11 kts 199°
2026-05-07 12:08 51.12761 13.76511 757 ft 12 kts 129°
2026-05-07 12:08 51.12721 13.76591 752 ft 7 kts 114°
2026-05-07 12:08 51.12729 13.76617 753 ft 3 kts 33°
2026-05-07 12:08 51.12759 13.76650 754 ft 1 kts 40°
2026-05-07 12:09 51.12773 13.76670 753 ft 4 kts 41°
2026-05-07 12:09 51.12782 13.76683 752 ft 0 kts 41°